This is the latest recevied weather packets stored in our database for station/object K3TLB-13. If no packets are shown the sender has not sent any weather packets the latest 1 day(s).
| Time | Temp. | Humidity | Pressure | Rain* | Wind** | Luminosity | Snow |
|---|---|---|---|---|---|---|---|
| 1778006341 | 26.67° C | 37% | 1008.9 hPa | 0 mm | 4.92 m/s, 136° | - | - |
| 1778006041 | 26.67° C | 37% | 1008.9 hPa | 0 mm | 4.92 m/s, 242° | - | - |
| 1778005745 | 26.67° C | 36% | 1009 hPa | 0 mm | 4.02 m/s, 175° | - | - |
| 1778005441 | 26.67° C | 36% | 1009 hPa | 0 mm | 3.58 m/s, 211° | - | - |
| 1778005141 | 26.67° C | 36% | 1008.9 hPa | 0 mm | 4.02 m/s, 142° | - | - |
| 1778004842 | 26.67° C | 36% | 1008.9 hPa | 0 mm | 3.58 m/s, 190° | - | - |
| 1778004794 | 26.67° C | 37% | 1009.1 hPa | 0 mm | 3.13 m/s, 167° | - | - |
| 1778004541 | 26.67° C | 37% | 1009.1 hPa | 0 mm | 3.13 m/s, 167° | - | - |
| 1778004241 | 26.67° C | 38% | 1009.1 hPa | 0 mm | 4.02 m/s, 135° | - | - |
| 1778003941 | 26.67° C | 37% | 1009 hPa | 0 mm | 4.02 m/s, 205° | - | - |
| 1778003641 | 26.67° C | 37% | 1009.2 hPa | 0 mm | 4.02 m/s, 231° | - | - |
| 1778003343 | 26.67° C | 36% | 1009.2 hPa | 0 mm | 4.02 m/s, 156° | - | - |
| 1778003041 | 26.67° C | 37% | 1009.2 hPa | 0 mm | 3.58 m/s, 200° | - | - |
| 1778002741 | 26.67° C | 38% | 1009.1 hPa | 0 mm | 4.02 m/s, 171° | - | - |
| 1778002442 | 26.11° C | 37% | 1009.1 hPa | 0 mm | 4.02 m/s, 209° | - | - |
| 1778002141 | 26.11° C | 36% | 1009.2 hPa | 0 mm | 4.02 m/s, 215° | - | - |
| 1778001841 | 26.11° C | 39% | 1009.3 hPa | 0 mm | 4.47 m/s, 205° | - | - |
| 1778001543 | 26.11° C | 36% | 1009.4 hPa | 0 mm | 4.47 m/s, 207° | - | - |
| 1778001242 | 26.11° C | 37% | 1009.4 hPa | 0 mm | 4.47 m/s, 121° | - | - |
| 1778000942 | 26.11° C | 36% | 1009.4 hPa | 0 mm | 4.47 m/s, 214° | - | - |
| 1778000642 | 26.11° C | 38% | 1009.5 hPa | 0 mm | 4.47 m/s, 164° | - | - |
| 1778000341 | 26.11° C | 39% | 1009.5 hPa | 0 mm | 4.47 m/s, 184° | - | - |
| 1778000041 | 25.56° C | 40% | 1009.5 hPa | 0 mm | 4.47 m/s, 269° | - | - |
| 1777999741 | 25.56° C | 39% | 1009.7 hPa | 0 mm | 4.92 m/s, 196° | - | - |
| 1777999441 | 25.56° C | 39% | 1009.7 hPa | 0 mm | 4.92 m/s, 225° | - | - |
* Rain latest hour (hover to see other rain measurements)
** Current wind speed in m/s (hover to see current wind gust speed)